[[{"header":{"parameterUnit":"m.s-1","parameterCategory":2,"la1":30.2991,"la2":30.254,"lo1":-89.0895,"lo2":-89.0444,"dy":0.0017,"dx":0.0017,"nx":28,"ny":28,"refTime":"2024-04-10T09:00:00:Z","depth":"0","parameterNumber":2,"parameterNumberName":"U-component_of_CURRENTS"},"data":[0,0,0,0,0,0,0,0,0,0,0,0,0,0,0,0,0,0,0,0,0,0,0,0,0,0,0,0,0,0,0,0,0,0,0,0,0,0,0,0,0,0,0,0,0,0,0,0,0,0,0,0,0,0,0,0,0,0,0.3424,0.3424,0,0.3467,0.3467,0.3467,0.3475,0.3475,0.3475,0.3475,0.3487,0.3487,0.3488,0,0,0,0,0,0,0,0,0,0,0,0,0,0.329,0.3293,0.3424,0.3424,0.3425,0.3467,0.3467,0.3467,0.3475,0.3475,0.3475,0.3475,0.3487,0.3487,0.3488,0,0,0,0,0,0,0,0,0,0,0,0,0,0.3339,0.3293,0.3423,0.3437,0.3439,0.3466,0.3467,0.3467,0.3475,0.3475,0.3475,0.3475,0.3487,0.3487,0.3488,0.3492,0,0,0.3489,0.349,0,0,0,0,0,0,0,0,0.3336,0.3343,0.3434,0.3436,0.3438,0.3469,0.3424,0.3475,0.3475,0.3457,0.3475,0.3475,0.348,0.3481,0.3485,0.3492,0.3493,0.3489,0.349,0.349,0.349,0,0,0,0,0,0,0,0.3333,0.3341,0.3437,0.3435,0.3438,0.3421,0.3428,0.3434,0.3465,0.3459,0.3461,0.3471,0.3481,0.3484,0.3485,0.3493,0.3489,0.349,0.349,0.349,0.3528,0.3529,0,0,0,0,0,0,0.3338,0.3339,0.3436,0.3439,0.339,0.3424,0.3432,0.3456,0.3466,0.3469,0.3471,0.3471,0.3484,0.3485,0.3486,0.3509,0.349,0.349,0.3491,0.3528,0.3528,0.3529,0,0,0,0,0,0,0.3335,0.3347,0.3434,0.3391,0.3401,0.3427,0.3454,0.3457,0.3465,0.3476,0.3477,0.3477,0.3484,0.3485,0.3493,0.3509,0.3491,0.3491,0.3527,0.3528,0.3529,0.3544,0,0,0,0,0,0,0.3332,0.3346,0.3365,0.3392,0.3404,0.3454,0.3454,0.3458,0.3473,0.3474,0.3482,0.3483,0.3484,0.3492,0.3493,0.3509,0.3492,0.3526,0.3527,0.3528,0.3542,0.3545,0.3547,0,0,0,0,0,0.3327,0.3337,0.3366,0.3377,0.343,0.3455,0.3459,0.3474,0.3474,0.348,0.3483,0.3483,0.3501,0.3492,0.3494,0.351,0.3525,0.3527,0.3528,0.3541,0.3544,0.3547,0,0,0,0,0,0,0.3279,0.3341,0.3372,0.34,0.3435,0.3458,0.3461,0.3476,0.3484,0.3483,0.3486,0.3487,0.3506,0.3504,0.3494,0.3526,0.3516,0.3518,0.3525,0.3528,0.3531,0.3503,0.3492,0,0,0,0,0,0.3285,0.3317,0.3369,0.3395,0.3409,0.344,0.3452,0.3469,0.3481,0.3484,0.3493,0.3501,0.3513,0.3516,0.3528,0.3537,0.3537,0.3551,0.3554,0.3556,0.3535,0.3552,0.3554,0.3534,0.3534,0.3534,0,0,0.327,0.3313,0.3329,0.3389,0.3411,0.3428,0.3445,0.3466,0.3479,0.3484,0.3495,0.3513,0.3519,0.3537,0.3544,0.3535,0.3567,0.3558,0.3559,0.3537,0.3554,0.3556,0.3557,0.3535,0.3535,0.3535,0,0,0.3252,0.33,0.332,0.3351,0.3402,0.3419,0.3428,0.3463,0.3478,0.3497,0.3509,0.3527,0.3543,0.3553,0.3557,0.3578,0.3585,0.3595,0.3579,0.3596,0.3598,0.3599,0.3623,0.3626,0.359,0.359,0.359,0,0.3233,0.3269,0.3324,0.335,0.3364,0.3414,0.342,0.3447,0.3481,0.3492,0.35,0.3535,0.3546,0.3561,0.357,0.3583,0.3595,0.3567,0.3599,0.36,0.36,0.3625,0.3628,0.3591,0.3591,0.3591,0.3591,0,0.3231,0.3259,0.3265,0.332,0.3346,0.3355,0.3406,0.3433,0.3455,0.3482,0.3514,0.3536,0.3553,0.3572,0.3571,0.3592,0.3602,0.3606,0.3588,0.3603,0.3628,0.3631,0.3592,0.3592,0.3592,0.3592,0,0,0.3163,0.3246,0.3242,0.3264,0.3325,0.334,0.3373,0.3407,0.3433,0.3469,0.3495,0.3517,0.3542,0.3548,0.3572,0.358,0.3609,0.359,0.359,0.3608,0.3656,0.3674,0.3679,0.3622,0.3623,0.3623,0.3679,0,0.3131,0.316,0.3212,0.3222,0.3233,0.3295,0.3323,0.3372,0.3421,0.3467,0.3498,0.3539,0.3533,0.3561,0.3565,0.3616,0.3614,0.3593,0.3642,0.3643,0.3652,0.3682,0.3648,0.3696,0.3682,0.3682,0.3683,0,0.3091,0.312,0.3128,0.3183,0.3192,0.3213,0.3269,0.331,0.3395,0.3436,0.348,0.353,0.3568,0.3562,0.3611,0.3603,0.3612,0.3634,0.3637,0.3641,0.3666,0.3674,0.3701,0.3674,0.3687,0.3687,0.3686,0,0.3001,0.3046,0.3046,0.3065,0.3145,0.3162,0.3202,0.3291,0.3343,0.3433,0.3493,0.3534,0.3595,0.3601,0.3661,0.3639,0.3718,0.37,0.3712,0.3715,0.3686,0.3685,0.368,0.3694,0.3694,0.3694,0.3694,0,0.2932,0.2932,0.3008,0.3014,0.3028,0.3107,0.3146,0.321,0.3316,0.3384,0.3476,0.355,0.3607,0.3677,0.3678,0.3728,0.3735,0.3707,0.3728,0.3694,0.3693,0.3667,0.3636,0.3696,0.3696,0.3695,0.3695,0,0.2847,0.2888,0.2904,0.2973,0.2994,0.3012,0.3118,0.3158,0.3278,0.338,0.3417,0.3578,0.3684,0.3744,0.3797,0.3779,0.3729,0.3805,0.377,0.3784,0.3748,0.372,0.3517,0.3408,0.3819,0.3819,0.382,0,0.2814,0.2813,0.2869,0.2878,0.2912,0.2957,0.2993,0.3115,0.3185,0.3395,0.3445,0.3609,0.3713,0.3837,0.3855,0.3881,0.3758,0.3838,0.377,0.3741,0.3725,0.3525,0.3432,0.3749,0.3749,0.3749,0.3749,0,0.2759,0.2778,0.2795,0.2811,0.2838,0.2872,0.2949,0.3005,0.3165,0.3276,0.3438,0.3547,0.3733,0.3794,0.3873,0.387,0.3705,0.3838,0.3812,0.3666,0.3441,0.335,0.3726,0.3748,0.3748,0.3748,0.3748,0.3748,0.2723,0.2712,0.2729,0.2736,0.2758,0.2783,0.2784,0.29,0.3002,0.3161,0.3338,0.3482,0.3709,0.3841,0.3804,0.381,0.3687,0.3758,0.3729,0.3529,0.3396,0.3776,0.382,0.382,0.3821,0.3821,0.3821,0,0.2659,0.2648,0.2653,0.2646,0.2624,0.2675,0.274,0.2739,0.2815,0.3045,0.3176,0.3442,0.3576,0.3707,0.3845,0.376,0.3509,0.3678,0.3405,0.3318,0.3699,0.3675,0.3684,0.3684,0.3684,0.3684,0.3684,0.3684,0.2627,0.2583,0.2575,0.251,0.2504,0.2451,0.2461,0.2495,0.2632,0.281,0.2986,0.3179,0.3558,0.3861,0.3878,0.3764,0.3454,0.3317,0.3223,0.3574,0.3578,0.3582,0.3554,0.3537,0.3537,0.2732,0.2726,0.2722]},{"header":{"parameterUnit":"m.s-1","parameterCategory":2,"la1":30.2991,"la2":30.254,"lo1":-89.0895,"lo2":-89.0444,"dy":0.0017,"dx":0.0017,"nx":28,"ny":28,"refTime":"2024-04-10T09:00:00:Z","depth":"0","parameterNumber":3,"parameterNumberName":"V-component_of_CURRENTS"},"data":[0,0,0,0,0,0,0,0,0,0,0,0,0,0,0,0,0,0,0,0,0,0,0,0,0,0,0,0,0,0,0,0,0,0,0,0,0,0,0,0,0,0,0,0,0,0,0,0,0,0,0,0,0,0,0,0,0,0,-0.0064,-0.0065,0,-0.0134,-0.0134,-0.0135,-0.0188,-0.0188,-0.0189,-0.0189,-0.0283,-0.0285,-0.0287,0,0,0,0,0,0,0,0,0,0,0,0,0,-0.003,-0.003,-0.0064,-0.0065,-0.0065,-0.0133,-0.0134,-0.0135,-0.0188,-0.0188,-0.0189,-0.0189,-0.0283,-0.0285,-0.0288,0,0,0,0,0,0,0,0,0,0,0,0,0,-0.0067,-0.003,-0.0064,-0.0099,-0.0103,-0.0133,-0.0134,-0.0136,-0.0188,-0.0188,-0.0189,-0.0189,-0.0282,-0.0285,-0.0288,-0.0296,0,0,-0.0298,-0.0299,0,0,0,0,0,0,0,0,-0.0065,-0.0069,-0.0093,-0.0097,-0.0101,-0.0152,-0.0157,-0.019,-0.0188,-0.0156,-0.0189,-0.019,-0.0241,-0.0247,-0.026,-0.03,-0.0304,-0.0298,-0.03,-0.0301,-0.0302,0,0,0,0,0,0,0,-0.0062,-0.0066,-0.0092,-0.0094,-0.0099,-0.013,-0.0135,-0.0164,-0.0195,-0.0159,-0.0163,-0.0169,-0.0243,-0.0257,-0.0262,-0.0306,-0.0298,-0.0301,-0.0303,-0.0304,-0.0351,-0.0351,0,0,0,0,0,0,-0.0049,-0.0063,-0.009,-0.0094,-0.0083,-0.013,-0.0136,-0.0136,-0.0195,-0.0204,-0.0169,-0.0171,-0.0251,-0.0259,-0.0266,-0.0261,-0.0301,-0.0304,-0.0306,-0.0352,-0.0351,-0.0351,0,0,0,0,0,0,-0.0047,-0.005,-0.0087,-0.008,-0.0087,-0.0129,-0.0129,-0.0137,-0.0147,-0.0201,-0.0211,-0.017,-0.0252,-0.0262,-0.028,-0.0266,-0.0306,-0.0309,-0.0353,-0.0352,-0.0351,-0.0263,0,0,0,0,0,0,-0.0046,-0.0049,-0.0044,-0.0079,-0.0087,-0.009,-0.0128,-0.0138,-0.0149,-0.0154,-0.0205,-0.0215,-0.0253,-0.0275,-0.0283,-0.0271,-0.0311,-0.0354,-0.0352,-0.0351,-0.0266,-0.0259,-0.0252,0,0,0,0,0,-0.0044,-0.0019,-0.0043,-0.0047,-0.0079,-0.0088,-0.0095,-0.0128,-0.0148,-0.0142,-0.0179,-0.0213,-0.0273,-0.0277,-0.0287,-0.0275,-0.0354,-0.0353,-0.0351,-0.027,-0.026,-0.0253,0,0,0,0,0,0,0.0011,-0.0023,-0.005,-0.0035,-0.0059,-0.0097,-0.0091,-0.0119,-0.0144,-0.0147,-0.0204,-0.0215,-0.023,-0.0262,-0.0264,-0.0286,-0.032,-0.032,-0.0255,-0.0246,-0.0239,-0.0209,-0.0314,0,0,0,0,0,0.0021,0.0024,-0.0014,-0.0001,-0.001,-0.0053,-0.0062,-0.0084,-0.0111,-0.0123,-0.0163,-0.0201,-0.0232,-0.0245,-0.0278,-0.0285,-0.0322,-0.0285,-0.0278,-0.0271,-0.0254,-0.0301,-0.0296,-0.0346,-0.0346,-0.0346,0,0,0.0042,0.0028,0.0027,0.0009,-0.0013,-0.0006,-0.0059,-0.0059,-0.0054,-0.0128,-0.0131,-0.0179,-0.0229,-0.024,-0.0249,-0.0263,-0.0278,-0.0269,-0.0264,-0.0249,-0.0299,-0.0294,-0.029,-0.0345,-0.0345,-0.0345,0,0,0.01,0.0078,0.0097,0.0086,0.0063,0.0039,0.0043,0.0006,-0.0012,-0.0026,-0.0078,-0.011,-0.0158,-0.0187,-0.0209,-0.018,-0.0242,-0.0198,-0.0133,-0.0179,-0.0175,-0.0173,-0.0216,-0.0218,-0.019,-0.019,-0.019,0,0.0124,0.0145,0.0104,0.0125,0.0124,0.0066,0.0091,0.007,0.0032,0.0021,-0.0012,-0.0085,-0.013,-0.0141,-0.0133,-0.0163,-0.0202,-0.0161,-0.0169,-0.0167,-0.0166,-0.0211,-0.0214,-0.0185,-0.0186,-0.0186,-0.0187,0,0.0195,0.0207,0.0225,0.0225,0.0221,0.0237,0.02,0.0193,0.0155,0.0121,0.009,0.0023,-0.0019,-0.0043,-0.0079,-0.0087,-0.0123,-0.0158,-0.0188,-0.0155,-0.0205,-0.021,-0.0179,-0.0181,-0.0182,-0.0183,0,0,0.0259,0.0268,0.0276,0.0287,0.0274,0.0282,0.0295,0.0281,0.029,0.0231,0.023,0.0165,0.0113,0.0086,0.0027,-0.0011,-0.0041,-0.007,-0.0075,-0.0107,-0.0144,-0.0151,-0.0158,-0.0084,-0.0084,-0.0084,-0.0184,0,0.0322,0.0381,0.0367,0.042,0.044,0.0402,0.042,0.0402,0.0362,0.0347,0.0269,0.024,0.0166,0.0144,0.0096,-0.0007,-0.0048,-0.001,-0.0176,-0.018,-0.0185,-0.0161,-0.014,-0.0225,-0.0188,-0.0189,-0.019,0,0.0396,0.0423,0.0485,0.0508,0.0515,0.0541,0.0551,0.0559,0.0521,0.0489,0.044,0.0364,0.0307,0.0234,0.0086,0.0111,0.0,-0.0086,-0.0093,-0.0129,-0.0195,-0.0252,-0.0235,-0.0458,-0.0198,-0.0197,-0.0197,0,0.046,0.0507,0.0559,0.057,0.0588,0.0613,0.0624,0.0604,0.0624,0.0579,0.0581,0.0475,0.0435,0.0288,0.0109,0.0092,-0.006,-0.0113,-0.0224,-0.0226,-0.0252,-0.0256,-0.0461,-0.0214,-0.0214,-0.0213,-0.0213,0,0.053,0.0571,0.0598,0.0627,0.0698,0.0685,0.0749,0.0738,0.0742,0.0787,0.0664,0.0672,0.0446,0.0326,0.0148,-0.004,-0.0035,-0.0199,-0.0246,-0.0221,-0.0221,-0.0452,-0.057,-0.0217,-0.0216,-0.0216,-0.0215,0,0.0585,0.0601,0.0665,0.0708,0.073,0.0782,0.0846,0.0888,0.0879,0.0937,0.0932,0.0819,0.0667,0.0433,0.019,0.0028,-0.029,-0.0239,-0.019,-0.0228,-0.0531,-0.0642,-0.088,-0.0985,-0.0374,-0.0375,-0.0375,0,0.0612,0.0654,0.0733,0.0783,0.0808,0.0883,0.094,0.0958,0.102,0.1041,0.1086,0.0951,0.0895,0.0532,0.02,-0.0113,-0.0321,-0.0298,-0.0323,-0.0534,-0.0694,-0.0782,-0.086,-0.0335,-0.0335,-0.0335,-0.0335,0,0.0664,0.0698,0.0753,0.0864,0.0939,0.1034,0.1125,0.1203,0.1247,0.1297,0.135,0.1304,0.096,0.0648,0.0207,-0.0016,-0.045,-0.031,-0.0549,-0.0685,-0.0775,-0.0902,-0.0291,-0.0336,-0.0336,-0.0336,-0.0336,-0.0336,0.0704,0.0758,0.0843,0.0951,0.1047,0.1188,0.1293,0.1398,0.1524,0.1646,0.1579,0.1582,0.1106,0.0507,0.0145,-0.0474,-0.049,-0.0652,-0.0772,-0.0844,-0.0938,-0.0318,-0.0402,-0.0402,-0.0403,-0.0403,-0.0403,0,0.0747,0.0818,0.0922,0.1061,0.1188,0.1231,0.1419,0.1542,0.1718,0.1835,0.189,0.1706,0.11,0.0493,-0.0358,-0.0839,-0.1018,-0.1104,-0.1244,-0.1304,-0.0772,-0.0762,-0.0901,-0.0901,-0.0901,-0.0901,-0.09,-0.09,0.0771,0.0877,0.094,0.1161,0.1269,0.1465,0.1591,0.1769,0.1915,0.2098,0.215,0.2142,0.1711,0.0081,-0.105,-0.132,-0.1656,-0.173,-0.1918,-0.1577,-0.1544,-0.1514,-0.1534,-0.1832,-0.1833,-0.2388,-0.2394,-0.2398]}],[{"header":{"parameterUnit":"m.s-1","parameterCategory":2,"la1":30.2991,"la2":30.254,"lo1":-89.0895,"lo2":-89.0444,"dy":0.0017,"dx":0.0017,"nx":28,"ny":28,"refTime":"2024-04-10T09:00:00:Z","depth":"2","parameterNumber":2,"parameterNumberName":"U-component_of_CURRENTS"},"data":[0,0,0,0,0,0,0,0,0,0,0,0,0,0,0,0,0,0,0,0,0,0,0,0,0,0,0,0,0,0,0,0,0,0,0,0,0,0,0,0,0,0,0,0,0,0,0,0,0,0,0,0,0,0,0,0,0,0,0.3123,0.3124,0,0.3183,0.3184,0.3184,0.322,0.322,0.322,0.3221,0.3245,0.3245,0.3245,0,0,0,0,0,0,0,0,0,0,0,0,0,0.3023,0.3024,0.3123,0.3124,0.3125,0.3183,0.3184,0.3184,0.322,0.322,0.3221,0.3221,0.3245,0.3245,0.3245,0,0,0,0,0,0,0,0,0,0,0,0,0,0.3071,0.3025,0.3122,0.3151,0.3154,0.3183,0.3184,0.3184,0.322,0.322,0.3221,0.3221,0.3245,0.3245,0.3246,0.3237,0,0,0.3247,0.3247,0,0,0,0,0,0,0,0,0.3068,0.3074,0.3146,0.3149,0.3153,0.3197,0.3158,0.3201,0.3219,0.3192,0.3221,0.3222,0.3227,0.3229,0.3236,0.3238,0.3239,0.3247,0.3247,0.3247,0.3247,0,0,0,0,0,0,0,0.3065,0.3072,0.3144,0.3147,0.3151,0.3156,0.3163,0.3166,0.3203,0.3195,0.3198,0.3208,0.3228,0.3235,0.3236,0.3239,0.3247,0.3247,0.3248,0.3248,0.3297,0.3298,0,0,0,0,0,0,0.3063,0.3069,0.3142,0.3146,0.3114,0.3158,0.3166,0.318,0.3204,0.3209,0.3208,0.321,0.3234,0.3236,0.3237,0.3268,0.3247,0.3248,0.3248,0.3296,0.3297,0.3298,0,0,0,0,0,0,0.306,0.3069,0.314,0.311,0.312,0.3159,0.3175,0.3181,0.3205,0.3215,0.3219,0.3228,0.3235,0.3237,0.3249,0.3268,0.3248,0.3248,0.3295,0.3296,0.3298,0.3305,0,0,0,0,0,0,0.3057,0.3068,0.3087,0.311,0.3122,0.3166,0.3175,0.3182,0.3211,0.3215,0.3233,0.3235,0.3235,0.3249,0.325,0.3268,0.3249,0.3293,0.3295,0.3297,0.3303,0.3306,0.3309,0,0,0,0,0,0.3053,0.3059,0.3087,0.3097,0.3144,0.3167,0.3173,0.3201,0.3212,0.3224,0.3234,0.3235,0.3263,0.3249,0.325,0.327,0.3292,0.3295,0.3297,0.3302,0.3306,0.3309,0,0,0,0,0,0,0.3014,0.3064,0.3096,0.3116,0.3151,0.3174,0.3188,0.3208,0.3227,0.3231,0.3238,0.324,0.3266,0.3265,0.325,0.3292,0.3282,0.3285,0.3286,0.3289,0.3292,0.3273,0.3249,0,0,0,0,0,0.302,0.3046,0.3091,0.3111,0.3129,0.3165,0.3182,0.3203,0.3219,0.323,0.3246,0.3261,0.3274,0.3278,0.3294,0.3303,0.3306,0.3322,0.3325,0.3327,0.3314,0.3333,0.3336,0.3306,0.3306,0.3306,0,0,0.3008,0.3042,0.3057,0.3107,0.3135,0.3155,0.3176,0.3202,0.322,0.3227,0.3255,0.3274,0.3282,0.3301,0.3313,0.3302,0.3342,0.333,0.3331,0.3317,0.3336,0.3339,0.3341,0.3307,0.3307,0.3307,0,0,0.299,0.3032,0.3051,0.3084,0.3136,0.3154,0.3166,0.3207,0.323,0.3255,0.3271,0.3294,0.3317,0.3324,0.3329,0.3354,0.3363,0.3375,0.3363,0.3384,0.3386,0.3387,0.3411,0.3415,0.3369,0.3369,0.3369,0,0.2977,0.3006,0.3057,0.3084,0.3102,0.3153,0.3165,0.3195,0.3237,0.3252,0.3266,0.3313,0.3322,0.3337,0.3348,0.3359,0.3374,0.3346,0.3385,0.3387,0.3389,0.3412,0.3416,0.3369,0.3369,0.3369,0.3369,0,0.2976,0.3004,0.3011,0.3066,0.3095,0.3107,0.3159,0.3194,0.3226,0.3255,0.3297,0.3317,0.3342,0.3358,0.3355,0.338,0.339,0.3392,0.3371,0.3392,0.3416,0.342,0.337,0.337,0.337,0.337,0,0,0.2913,0.2994,0.2994,0.302,0.3082,0.3099,0.3137,0.3176,0.321,0.3254,0.329,0.3312,0.3341,0.3347,0.3366,0.3374,0.3406,0.3385,0.3385,0.3398,0.3458,0.3465,0.347,0.3418,0.3419,0.3419,0.3476,0,0.289,0.2921,0.2969,0.2991,0.3008,0.307,0.3102,0.3154,0.3207,0.3263,0.3292,0.334,0.3334,0.3363,0.3368,0.3414,0.3414,0.339,0.3444,0.3445,0.344,0.3474,0.3222,0.3251,0.3479,0.348,0.348,0,0.2862,0.289,0.2907,0.2964,0.2977,0.3003,0.3068,0.311,0.3199,0.3244,0.3293,0.3344,0.3382,0.3376,0.3425,0.3416,0.3425,0.3443,0.3446,0.3446,0.3459,0.3265,0.3249,0.3487,0.3487,0.3486,0.3486,0,0.2787,0.2836,0.2843,0.2864,0.2944,0.2967,0.3009,0.31,0.3153,0.325,0.3311,0.3357,0.3417,0.3427,0.348,0.3459,0.3538,0.3516,0.352,0.3521,0.3311,0.3293,0.3519,0.3519,0.3519,0.3519,0.3519,0,0.2732,0.2741,0.2814,0.2826,0.2848,0.2925,0.2972,0.3037,0.3143,0.321,0.3303,0.3374,0.3434,0.3501,0.3501,0.3545,0.3558,0.352,0.3536,0.3311,0.3293,0.3495,0.3492,0.3521,0.352,0.352,0.352,0,0.2664,0.2705,0.2727,0.2797,0.2821,0.2846,0.2951,0.2994,0.3114,0.3214,0.3253,0.3407,0.3507,0.3564,0.3616,0.3596,0.3619,0.3617,0.3361,0.3346,0.3576,0.3573,0.362,0.362,0.3621,0.3621,0.3622,0,0.2637,0.2641,0.2701,0.2712,0.2748,0.2799,0.2837,0.2957,0.3026,0.3228,0.3276,0.3433,0.3524,0.3639,0.3625,0.3641,0.3665,0.3409,0.3312,0.3576,0.3586,0.3582,0.3578,0.3035,0.3031,0.3027,0.3024,0,0.2589,0.2611,0.2631,0.2653,0.2684,0.2718,0.2797,0.285,0.3005,0.3111,0.3263,0.336,0.3505,0.3441,0.3499,0.3459,0.3391,0.3341,0.3669,0.3072,0.3035,0.3043,0.3055,0.2992,0.2995,0.2997,0.2999,0.3,0.2556,0.2548,0.257,0.2583,0.2609,0.2632,0.2635,0.2742,0.2838,0.2963,0.3133,0.3185,0.3254,0.323,0.3144,0.3075,0.3298,0.3136,0.3141,0.3151,0.3097,0.3066,0.3017,0.3021,0.3023,0.3026,0.3028,0,0.2492,0.249,0.2498,0.2498,0.2476,0.2533,0.2592,0.2572,0.2636,0.279,0.2889,0.2714,0.273,0.2772,0.264,0.2669,0.2569,0.2547,0.2386,0.2425,0.2458,0.2359,0.2088,0.2084,0.2081,0.2077,0,0,0.2461,0.2423,0.2416,0.2357,0.236,0.2304,0.2311,0.2308,0.238,0.2387,0.2405,0.2625,0.2746,0.2381,0.2358,0.2201,0.2277,0.2114,0.2886,0.274,0.2767,0.284,0.2742,0,0,0,0,0]},{"header":{"parameterUnit":"m.s-1","parameterCategory":2,"la1":30.2991,"la2":30.254,"lo1":-89.0895,"lo2":-89.0444,"dy":0.0017,"dx":0.0017,"nx":28,"ny":28,"refTime":"2024-04-10T09:00:00:Z","depth":"2","parameterNumber":3,"parameterNumberName":"V-component_of_CURRENTS"},"data":[0,0,0,0,0,0,0,0,0,0,0,0,0,0,0,0,0,0,0,0,0,0,0,0,0,0,0,0,0,0,0,0,0,0,0,0,0,0,0,0,0,0,0,0,0,0,0,0,0,0,0,0,0,0,0,0,0,0,0.0103,0.0102,0,0.0024,0.0023,0.0022,-0.004,-0.0041,-0.0041,-0.0042,-0.0135,-0.0137,-0.0139,0,0,0,0,0,0,0,0,0,0,0,0,0,0.0127,0.0128,0.0103,0.0102,0.0101,0.0024,0.0023,0.0021,-0.004,-0.0041,-0.0041,-0.0042,-0.0134,-0.0137,-0.0139,0,0,0,0,0,0,0,0,0,0,0,0,0,0.0089,0.0128,0.0103,0.0061,0.0057,0.0024,0.0023,0.0021,-0.004,-0.0041,-0.0041,-0.0042,-0.0134,-0.0137,-0.014,-0.0141,0,0,-0.0149,-0.015,0,0,0,0,0,0,0,0,0.0091,0.0088,0.0068,0.0064,0.0059,0.0001,-0.0003,-0.0034,-0.004,-0.0003,-0.0042,-0.0043,-0.009,-0.0097,-0.011,-0.0146,-0.015,-0.0149,-0.0151,-0.0152,-0.0153,0,0,0,0,0,0,0,0.0094,0.0091,0.0071,0.0068,0.0062,0.0021,0.0016,-0.001,-0.0042,-0.0007,-0.0011,-0.0019,-0.0093,-0.0107,-0.0113,-0.0151,-0.0149,-0.0151,-0.0153,-0.0154,-0.0205,-0.0205,0,0,0,0,0,0,0.011,0.0094,0.0074,0.0069,0.0074,0.0022,0.0015,0.002,-0.0041,-0.0051,-0.0018,-0.0022,-0.0102,-0.0109,-0.0116,-0.0118,-0.0152,-0.0155,-0.0156,-0.0206,-0.0205,-0.0205,0,0,0,0,0,0,0.0111,0.0109,0.0077,0.0079,0.0072,0.0023,0.0028,0.0019,0.0002,-0.005,-0.006,-0.0026,-0.0103,-0.0112,-0.0132,-0.0122,-0.0156,-0.0159,-0.0206,-0.0206,-0.0205,-0.0124,0,0,0,0,0,0,0.0112,0.0111,0.0115,0.0081,0.0072,0.007,0.0029,0.0018,-0.0001,-0.0006,-0.006,-0.0069,-0.0104,-0.0127,-0.0135,-0.0127,-0.0161,-0.0207,-0.0206,-0.0205,-0.0127,-0.0121,-0.0115,0,0,0,0,0,0.0114,0.0137,0.0116,0.0113,0.0082,0.0071,0.0063,0.0024,-0.0,0.0003,-0.0035,-0.0068,-0.0128,-0.0129,-0.0138,-0.0131,-0.0207,-0.0206,-0.0205,-0.013,-0.0122,-0.0115,0,0,0,0,0,0,0.0161,0.0132,0.0108,0.0124,0.01,0.0061,0.0059,0.003,0.0001,-0.0005,-0.0059,-0.007,-0.0088,-0.0118,-0.0117,-0.0144,-0.0175,-0.0175,-0.0114,-0.0107,-0.0101,-0.0075,-0.0163,0,0,0,0,0,0.0171,0.0176,0.0141,0.0154,0.0144,0.0099,0.0087,0.0063,0.0034,0.002,-0.0021,-0.006,-0.009,-0.0104,-0.0136,-0.0144,-0.0181,-0.0148,-0.0142,-0.0136,-0.0122,-0.0171,-0.0168,-0.0202,-0.0202,-0.0202,0,0,0.0189,0.0178,0.0177,0.0163,0.0139,0.0142,0.009,0.0084,0.0085,0.0016,0.0004,-0.0041,-0.0088,-0.0101,-0.0112,-0.0125,-0.0147,-0.0135,-0.013,-0.0118,-0.0169,-0.0166,-0.0163,-0.0201,-0.0201,-0.0201,0,0,0.0239,0.0222,0.0238,0.0226,0.0202,0.0178,0.0179,0.014,0.0119,0.0103,0.0052,0.0019,-0.0029,-0.0058,-0.0079,-0.0057,-0.0115,-0.0074,-0.0019,-0.0066,-0.0064,-0.0062,-0.0104,-0.0107,-0.0068,-0.0068,-0.0068,0,0.0257,0.0278,0.0242,0.0259,0.0255,0.02,0.0219,0.0197,0.0156,0.0144,0.0112,0.0037,-0.0005,-0.002,-0.0015,-0.0042,-0.008,-0.0041,-0.0057,-0.0056,-0.0056,-0.01,-0.0104,-0.0064,-0.0064,-0.0065,-0.0065,0,0.0317,0.0329,0.0343,0.0342,0.0336,0.0347,0.0312,0.0302,0.0262,0.0229,0.0195,0.0131,0.0089,0.0065,0.0032,0.0018,-0.0014,-0.0046,-0.0072,-0.0047,-0.0096,-0.0101,-0.0058,-0.006,-0.0061,-0.0062,0,0,0.0371,0.038,0.0386,0.0396,0.038,0.0387,0.0393,0.0378,0.0382,0.0323,0.0318,0.0253,0.0204,0.0177,0.0122,0.0082,0.0048,0.0028,0.0023,-0.0007,-0.0057,-0.0069,-0.0077,0.0008,0.0008,0.0007,-0.0092,0,0.0423,0.0475,0.0463,0.0508,0.0524,0.0488,0.0502,0.0483,0.0443,0.0426,0.035,0.0321,0.0251,0.023,0.0179,0.0082,0.0037,0.0078,-0.0082,-0.0087,-0.0095,-0.0082,-0.0059,-0.0144,-0.0098,-0.0098,-0.0099,0,0.0484,0.051,0.0563,0.0586,0.0591,0.0614,0.062,0.0625,0.0586,0.0555,0.0504,0.0433,0.0373,0.0305,0.0157,0.0184,0.0078,-0.0005,-0.0012,-0.0052,-0.0109,-0.0163,-0.0157,-0.0109,-0.0108,-0.0108,-0.0107,0,0.0539,0.0581,0.0628,0.0636,0.0655,0.0677,0.0687,0.0666,0.0684,0.0637,0.0638,0.0531,0.0492,0.0347,0.0174,0.0161,0.0004,-0.004,-0.0152,-0.0154,-0.0178,-0.0182,-0.0144,-0.0144,-0.0143,-0.0143,-0.0143,0,0.0597,0.0634,0.0662,0.0689,0.0756,0.0743,0.0803,0.079,0.0792,0.0832,0.0714,0.0717,0.0499,0.0379,0.0208,0.002,0.0025,-0.0134,-0.0177,-0.015,-0.0149,-0.0154,-0.0154,-0.0147,-0.0146,-0.0145,-0.0145,0,0.0643,0.066,0.072,0.0762,0.0784,0.0833,0.0896,0.0934,0.0924,0.0974,0.0968,0.0855,0.07,0.0474,0.0236,0.0079,-0.0111,-0.0182,-0.0131,-0.0166,-0.0249,-0.0244,-0.0316,-0.0318,-0.0319,-0.0319,-0.032,0,0.0667,0.0706,0.0784,0.0832,0.0856,0.0928,0.0983,0.1001,0.1058,0.107,0.111,0.0972,0.0906,0.0549,0.0229,-0.0075,-0.0114,-0.0249,-0.0269,-0.023,-0.0266,-0.0258,-0.0252,-0.0277,-0.0277,-0.0277,-0.0278,0,0.0713,0.0746,0.0799,0.0906,0.0979,0.1071,0.1158,0.1231,0.127,0.1311,0.1349,0.1295,0.0954,0.0643,0.0214,0.0007,-0.0201,-0.0263,-0.0244,-0.0226,-0.0198,-0.0231,-0.0225,-0.028,-0.0279,-0.0279,-0.0279,-0.0279,0.0749,0.08,0.0883,0.0987,0.108,0.1214,0.1315,0.1408,0.1522,0.1606,0.1541,0.1471,0.1103,0.0562,0.0181,-0.0224,-0.0203,-0.0336,-0.0334,-0.0331,-0.0298,-0.0272,-0.0362,-0.0362,-0.0363,-0.0363,-0.0363,0,0.0787,0.0856,0.0956,0.109,0.1211,0.1255,0.1433,0.1534,0.1686,0.1735,0.1759,0.1427,0.1057,0.0632,0.0036,-0.0309,-0.0343,-0.042,-0.0384,-0.0379,-0.0375,-0.0343,-0.042,-0.0421,-0.0423,-0.0423,0,0,0.0808,0.0909,0.097,0.118,0.1285,0.1468,0.1588,0.1722,0.1809,0.1868,0.1825,0.1718,0.1198,0.0766,0.0274,-0.0073,-0.0142,-0.0143,-0.0058,0.0048,0.0056,-0.029,-0.0231,0,0,0,0,0]}],[{"header":{"parameterUnit":"m.s-1","parameterCategory":2,"la1":30.2991,"la2":30.254,"lo1":-89.0895,"lo2":-89.0444,"dy":0.0017,"dx":0.0017,"nx":28,"ny":28,"refTime":"2024-04-10T09:00:00:Z","depth":"4","parameterNumber":2,"parameterNumberName":"U-component_of_CURRENTS"},"data":[0,0,0,0,0,0,0,0,0,0,0,0,0,0,0,0,0,0,0,0,0,0,0,0,0,0,0,0,0,0,0,0,0,0,0,0,0,0,0,0,0,0,0,0,0,0,0,0,0,0,0,0,0,0,0,0,0,0,0.16,0.1601,0,0.1707,0.1708,0.1709,0.1758,0.1759,0.176,0.176,0.1862,0.1864,0.1866,0,0,0,0,0,0,0,0,0,0,0,0,0,0.1408,0.141,0.1599,0.1602,0.1604,0.1707,0.1708,0.1709,0.1758,0.1759,0.176,0.1761,0.1861,0.1864,0.1866,0,0,0,0,0,0,0,0,0,0,0,0,0,0.1493,0.1411,0.1599,0.1647,0.1653,0.1707,0.1708,0.1709,0.1758,0.1759,0.176,0.1761,0.186,0.1863,0.1866,0.1864,0,0,0.1876,0.1877,0,0,0,0,0,0,0,0,0.1488,0.1499,0.1638,0.1644,0.1651,0.1728,0.1678,0.1764,0.1758,0.1709,0.176,0.1762,0.1821,0.1828,0.1833,0.1869,0.1873,0.1876,0.1878,0.1879,0.188,0,0,0,0,0,0,0,0.1482,0.1494,0.1633,0.164,0.1648,0.1655,0.1667,0.1694,0.1751,0.1713,0.1719,0.1745,0.1824,0.183,0.1836,0.1875,0.1876,0.1879,0.1881,0.1882,0.2031,0.2033,0,0,0,0,0,0,0.1487,0.1489,0.163,0.1638,0.158,0.1658,0.1671,0.1695,0.1751,0.1763,0.1744,0.1747,0.1824,0.1833,0.184,0.1958,0.1879,0.1882,0.1884,0.2029,0.2032,0.2034,0,0,0,0,0,0,0.1482,0.1498,0.1626,0.1572,0.159,0.1661,0.1687,0.1697,0.1747,0.1776,0.1787,0.179,0.1826,0.1836,0.1912,0.1958,0.1883,0.1886,0.2026,0.203,0.2033,0.212,0,0,0,0,0,0,0.1476,0.1495,0.1525,0.1573,0.1594,0.1688,0.1687,0.1699,0.1763,0.1768,0.1818,0.1826,0.1827,0.1908,0.1915,0.1961,0.1889,0.2024,0.2028,0.2032,0.2114,0.2126,0.2135,0,0,0,0,0,0.1469,0.1495,0.1525,0.1544,0.1628,0.1691,0.1702,0.1749,0.1764,0.1794,0.1837,0.1827,0.1938,0.1913,0.1921,0.1968,0.2022,0.2027,0.2031,0.2109,0.2123,0.2135,0,0,0,0,0,0,0.1441,0.1505,0.1539,0.159,0.1656,0.1704,0.174,0.1772,0.1827,0.1843,0.1859,0.1871,0.1953,0.195,0.1922,0.2022,0.1976,0.1982,0.2032,0.2045,0.2056,0.2069,0.1891,0,0,0,0,0,0.1448,0.148,0.1554,0.1603,0.1636,0.1696,0.1733,0.1771,0.1823,0.185,0.1889,0.1928,0.197,0.2002,0.2032,0.2092,0.2087,0.2126,0.2136,0.2145,0.2162,0.2192,0.2207,0.205,0.205,0.2049,0,0,0.1456,0.1497,0.152,0.16,0.165,0.1708,0.172,0.1792,0.1848,0.1851,0.1941,0.1971,0.1995,0.2064,0.2099,0.2075,0.2188,0.2151,0.2159,0.2171,0.2199,0.2214,0.2227,0.2053,0.2052,0.2052,0,0,0.1484,0.1524,0.1566,0.1617,0.1708,0.1739,0.1772,0.1849,0.1893,0.1976,0.1997,0.2067,0.2121,0.216,0.2179,0.2267,0.2243,0.2273,0.2341,0.237,0.2383,0.2395,0.2408,0.242,0.2278,0.2278,0.2278,0,0.1504,0.1561,0.1592,0.1651,0.1705,0.1759,0.1828,0.1872,0.197,0.2018,0.2018,0.2138,0.2166,0.2256,0.2294,0.2293,0.2297,0.229,0.2384,0.2395,0.2405,0.2416,0.2428,0.2283,0.2282,0.2282,0.2281,0,0.1556,0.1619,0.165,0.1734,0.1789,0.1857,0.1927,0.1994,0.2046,0.2094,0.2206,0.2249,0.2321,0.2341,0.235,0.2447,0.2422,0.2392,0.235,0.2426,0.2433,0.2444,0.229,0.2288,0.2287,0.2285,0,0,0.1574,0.1669,0.1691,0.1737,0.1842,0.1886,0.1985,0.2086,0.215,0.2234,0.2322,0.2414,0.2444,0.2471,0.2494,0.2533,0.2615,0.2506,0.2505,0.2516,0.2674,0.252,0.2517,0.2599,0.2602,0.2604,0.2649,0,0.1627,0.1722,0.1769,0.1872,0.1924,0.1999,0.2074,0.2167,0.2241,0.2329,0.2397,0.248,0.2487,0.2535,0.2581,0.2611,0.2649,0.2605,0.2602,0.2602,0.2453,0.2526,0.2612,0.2657,0.266,0.2661,0.2663,0,0.1677,0.1728,0.1832,0.1926,0.196,0.203,0.2155,0.2234,0.2358,0.2416,0.2517,0.2559,0.2671,0.2638,0.2735,0.2707,0.2711,0.2714,0.2715,0.2549,0.2468,0.2565,0.2682,0.268,0.2679,0.2678,0.2676,0,0.1648,0.1775,0.185,0.1888,0.2,0.2074,0.2148,0.2274,0.2345,0.2486,0.2548,0.2656,0.2725,0.2758,0.2797,0.2773,0.2864,0.2816,0.268,0.2668,0.2753,0.274,0.2871,0.2871,0.2871,0.2871,0.2871,0,0.1659,0.1724,0.1845,0.1877,0.1966,0.2064,0.2172,0.2262,0.2396,0.247,0.2595,0.266,0.2761,0.2823,0.2827,0.2794,0.289,0.2709,0.2676,0.2788,0.2779,0.276,0.2747,0.2873,0.2872,0.2872,0.2872,0,0.1606,0.1693,0.1773,0.1903,0.1951,0.2016,0.217,0.2233,0.2381,0.2488,0.2539,0.2694,0.277,0.2841,0.2897,0.2819,0.2804,0.2764,0.2897,0.2867,0.2578,0.2569,0.2603,0.2598,0.2594,0.259,0.2587,0,0.1578,0.1618,0.1763,0.1808,0.1875,0.1985,0.2051,0.2209,0.228,0.248,0.2515,0.2658,0.2736,0.2698,0.278,0.2774,0.2741,0.2708,0.2633,0.259,0.2555,0.2552,0.2549,0.2581,0.258,0.2578,0.2577,0,0.151,0.1583,0.164,0.1733,0.1816,0.1889,0.2009,0.2042,0.2215,0.2366,0.243,0.2471,0.2554,0.2594,0.2619,0.2606,0.2713,0.2663,0.2671,0.26,0.2563,0.2532,0.2534,0.2563,0.2565,0.2566,0.2567,0,0.1462,0.148,0.1569,0.1636,0.1729,0.1769,0.1844,0.1926,0.201,0.223,0.224,0.2389,0.2526,0.2508,0.2528,0.2514,0.2464,0.2364,0.2385,0.2402,0.2316,0.2238,0.2125,0,0,0,0,0,0.1398,0.1406,0.1462,0.1524,0.1608,0.1666,0.18,0.1881,0.2045,0.2033,0.2132,0.2195,0.2235,0.2316,0.2259,0.2439,0.2474,0.236,0.237,0.2483,0.25,0.2417,0,0,0,0,0,0,0.1354,0.1402,0.1418,0.1415,0.1436,0.1515,0.1594,0.1709,0.1721,0.1893,0.1933,0.2058,0.2138,0.2242,0.2214,0.2237,0.2196,0.2455,0.2449,0.2474,0.2489,0.2502,0.2423,0,0,0,0,0]},{"header":{"parameterUnit":"m.s-1","parameterCategory":2,"la1":30.2991,"la2":30.254,"lo1":-89.0895,"lo2":-89.0444,"dy":0.0017,"dx":0.0017,"nx":28,"ny":28,"refTime":"2024-04-10T09:00:00:Z","depth":"4","parameterNumber":3,"parameterNumberName":"V-component_of_CURRENTS"},"data":[0,0,0,0,0,0,0,0,0,0,0,0,0,0,0,0,0,0,0,0,0,0,0,0,0,0,0,0,0,0,0,0,0,0,0,0,0,0,0,0,0,0,0,0,0,0,0,0,0,0,0,0,0,0,0,0,0,0,0.0323,0.0322,0,0.0279,0.0279,0.0278,0.0255,0.0255,0.0254,0.0254,0.0201,0.02,0.0199,0,0,0,0,0,0,0,0,0,0,0,0,0,0.0343,0.0343,0.0323,0.0322,0.0321,0.0279,0.0279,0.0278,0.0255,0.0255,0.0254,0.0254,0.0201,0.02,0.0199,0,0,0,0,0,0,0,0,0,0,0,0,0,0.0323,0.0343,0.0323,0.0302,0.03,0.0279,0.0278,0.0278,0.0255,0.0255,0.0254,0.0254,0.0202,0.02,0.0199,0.0198,0,0,0.0194,0.0193,0,0,0,0,0,0,0,0,0.0324,0.0323,0.0306,0.0304,0.0301,0.0269,0.0266,0.025,0.0255,0.0275,0.0254,0.0253,0.0221,0.0218,0.0215,0.0195,0.0193,0.0193,0.0192,0.0192,0.0191,0,0,0,0,0,0,0,0.0326,0.0324,0.0309,0.0305,0.0302,0.028,0.0277,0.0263,0.0254,0.0273,0.0271,0.0261,0.022,0.0217,0.0214,0.0192,0.0193,0.0192,0.0191,0.019,0.0151,0.0151,0,0,0,0,0,0,0.0328,0.0326,0.031,0.0307,0.0308,0.028,0.0277,0.0282,0.0254,0.0248,0.0262,0.026,0.022,0.0216,0.0212,0.02,0.0192,0.019,0.0189,0.0151,0.0151,0.0151,0,0,0,0,0,0,0.0329,0.0328,0.0312,0.0312,0.0308,0.028,0.0286,0.0282,0.0278,0.0245,0.0239,0.0262,0.022,0.0214,0.0196,0.0198,0.0189,0.0188,0.0151,0.0151,0.0151,0.0182,0,0,0,0,0,0,0.033,0.0329,0.0339,0.0313,0.0308,0.0303,0.0286,0.0281,0.0271,0.0269,0.0243,0.0238,0.0219,0.0199,0.0194,0.0195,0.0187,0.0151,0.0151,0.0151,0.0181,0.0183,0.0184,0,0,0,0,0,0.0331,0.0346,0.0341,0.0338,0.0322,0.0303,0.03,0.0279,0.0272,0.0275,0.0252,0.0239,0.0195,0.0197,0.0192,0.0193,0.0151,0.0151,0.0151,0.018,0.0182,0.0184,0,0,0,0,0,0,0.036,0.0344,0.0337,0.0348,0.0328,0.0298,0.0298,0.0284,0.0269,0.0268,0.0239,0.0232,0.0216,0.0201,0.0204,0.0181,0.0171,0.017,0.0195,0.0197,0.0198,0.0211,0.0185,0,0,0,0,0,0.0371,0.0382,0.0355,0.0364,0.0355,0.0329,0.032,0.0306,0.0285,0.0279,0.0258,0.0235,0.0213,0.0202,0.0183,0.0172,0.0145,0.0169,0.0171,0.0172,0.0178,0.0131,0.0129,0.015,0.015,0.015,0,0,0.0382,0.0377,0.0381,0.0371,0.0355,0.035,0.0324,0.0314,0.031,0.0275,0.0269,0.0243,0.0211,0.0196,0.0188,0.0183,0.0151,0.0172,0.0174,0.0179,0.013,0.0128,0.0126,0.015,0.015,0.015,0,0,0.0404,0.0407,0.0417,0.0407,0.0386,0.0371,0.0369,0.0343,0.0332,0.0319,0.0289,0.0263,0.0238,0.021,0.0193,0.0194,0.0163,0.019,0.0209,0.0163,0.0161,0.0158,0.012,0.0114,0.0191,0.0191,0.0191,0,0.0414,0.0429,0.0415,0.0418,0.0414,0.0383,0.0387,0.0372,0.0343,0.0336,0.0323,0.0273,0.0243,0.0215,0.0212,0.0198,0.017,0.0204,0.0165,0.0162,0.016,0.0121,0.0114,0.0192,0.0192,0.0192,0.0192,0,0.0435,0.045,0.0454,0.0453,0.0448,0.0447,0.0421,0.0417,0.0401,0.0379,0.0352,0.0306,0.0278,0.0259,0.0234,0.0202,0.0188,0.0173,0.0161,0.0159,0.0118,0.0111,0.0195,0.0194,0.0194,0.0193,0,0,0.045,0.0465,0.0469,0.0483,0.0468,0.047,0.0465,0.0451,0.0455,0.0416,0.0411,0.0353,0.0327,0.0305,0.0266,0.022,0.0169,0.0192,0.0189,0.0157,0.0071,0.0062,0.0052,0.0146,0.0145,0.0144,0.005,0,0.0468,0.0496,0.0494,0.0522,0.0533,0.0516,0.0521,0.0507,0.0484,0.0474,0.0413,0.0395,0.0344,0.0333,0.0277,0.0202,0.015,0.0196,0.0075,0.0072,0.0066,0.0044,0.014,0.0044,0.0042,0.0041,0.004,0,0.0486,0.0507,0.0539,0.0571,0.0574,0.059,0.0601,0.0601,0.0571,0.0554,0.0513,0.0466,0.0399,0.0359,0.0219,0.0252,0.0166,0.0099,0.0093,0.0071,0.0048,0.0045,0.0025,0.0026,0.0028,0.0029,0.0029,0,0.051,0.0541,0.0577,0.0585,0.0608,0.063,0.0644,0.063,0.0643,0.0608,0.0611,0.0517,0.0484,0.036,0.022,0.0218,0.0065,0.0045,-0.0048,-0.0049,-0.0026,-0.0023,-0.006,-0.006,-0.006,-0.0059,-0.0059,0,0.0528,0.0559,0.0601,0.0622,0.0678,0.0678,0.0727,0.0722,0.0725,0.0746,0.0663,0.0649,0.0482,0.0375,0.0237,0.0074,0.0074,-0.0048,-0.0077,-0.001,-0.0004,-0.0032,-0.0027,-0.0063,-0.0062,-0.0061,-0.0061,0,0.0543,0.0567,0.0619,0.0668,0.0694,0.0737,0.0801,0.0829,0.0826,0.085,0.0846,0.0747,0.0603,0.0427,0.0224,0.0109,-0.0052,-0.0112,-0.0021,-0.0042,-0.014,-0.0133,-0.0225,-0.0226,-0.0227,-0.0228,-0.0229,0,0.0548,0.0578,0.0663,0.0707,0.0737,0.0806,0.0853,0.088,0.0916,0.0908,0.0923,0.0799,0.0708,0.0425,0.0228,-0.0039,-0.0081,-0.0164,-0.0166,-0.014,-0.0159,-0.015,-0.0142,-0.023,-0.023,-0.0231,-0.0231,0,0.0558,0.0599,0.0646,0.0743,0.0812,0.089,0.0964,0.1,0.1029,0.1027,0.0983,0.083,0.0665,0.0431,0.0222,0.0029,-0.0109,-0.0175,-0.0174,-0.0177,-0.0148,-0.0163,-0.0154,-0.0234,-0.0234,-0.0234,-0.0233,0,0.0571,0.061,0.0686,0.077,0.0863,0.0951,0.0988,0.1034,0.1071,0.1064,0.1045,0.0862,0.0757,0.0466,0.0275,0.0082,0.0026,-0.0037,-0.0045,-0.0043,0.0031,0.0097,0.0057,0,0,0,0,0,0.0574,0.0622,0.0702,0.0801,0.0897,0.0961,0.1052,0.1081,0.1114,0.1093,0.1075,0.092,0.0629,0.0505,0.0309,0.0238,-0.0018,0.0001,-0.0096,-0.0253,-0.0249,-0.0195,0,0,0,0,0,0,0.0574,0.0648,0.0697,0.0818,0.0892,0.1004,0.1068,0.109,0.1087,0.1084,0.0936,0.0867,0.0586,0.0741,0.0304,0.0245,0.0155,-0.0132,-0.0136,-0.0255,-0.0252,-0.0249,-0.0191,0,0,0,0,0]}]]